User: anonymous   Login
Location: Caltech
(34.1382°N, 118.1253°W)
Time: 10:13:42
(UTC-07:00)
Language:

CZ-2C R/B - Orbit

View from above orbital plane
View from above orbital plane
View from above satellite
View from above satellite

Ground track
Ground track

The orbit data is extracted from the following two-line orbital elements,

1 36089U 09061B   16270.57361256  .00000078  00000-0  30463-4 0  9998
2 36089  98.0518 278.1512 0083033 136.9734 334.1655 14.49599980363518
Epoch (UTC): 26 September 2016 13:46:00
Eccentricity: 0.0083033
inclination: 98.0518°
perigee height: 668 km
apogee height: 786 km
right ascension of ascending node: 278.1512°
argument of perigee: 136.9734°
revolutions per day: 14.49599980
mean anomaly at epoch: 334.1655°
orbit number at epoch: 36351

The dashed part of the orbit path shows where the satellite is in the earth's shadow,  

DLR